Retour au catalogue

DELTA 1 DEB

ActifSSO
NORAD 18429·DEBRIS·🇺🇸 United States

Lancé Jul 29, 1976 depuis Vandenberg Space Force Base

Loading…

Prochains Passages (prochaines 24 heures)

TLE

FraisSource: Space-Track

Époque: Sep 14, 2026, 02:15 UTC

1 18429U 76077EZ  26257.09430447 -.00000243  00000-0 -21228-2 0  9992
2 18429 102.4709 303.5818 0228345  46.3064 343.1740 12.06423324626401

Suivez DELTA 1 DEB en temps réel avec AllMySat

Download on the App Store